TimePST,TemperatureF,Dew PointF,Humidity,Sea Level PressureIn,VisibilityMPH,Wind Direction,Wind SpeedMPH,Gust SpeedMPH,PrecipitationIn,Events,Conditions,WindDirDegrees,DateUTC
12:53 AM,35.1,30.0,82,30.09,10.0,SSW,3.5,-,N/A,,Overcast,210,2013-02-08 08:53:00
1:53 AM,36.0,28.0,73,30.10,10.0,South,4.6,-,N/A,,Overcast,170,2013-02-08 09:53:00
2:53 AM,36.0,28.0,73,30.12,10.0,South,6.9,-,N/A,,Overcast,180,2013-02-08 10:53:00
3:53 AM,36.0,28.0,73,30.12,10.0,South,4.6,-,N/A,,Overcast,180,2013-02-08 11:53:00
4:53 AM,35.1,28.0,76,30.14,10.0,South,5.8,-,N/A,,Overcast,180,2013-02-08 12:53:00
5:53 AM,35.1,28.0,76,30.15,10.0,South,3.5,-,N/A,,Mostly Cloudy,170,2013-02-08 13:53:00
6:53 AM,35.1,28.0,76,30.16,10.0,South,4.6,-,N/A,,Overcast,180,2013-02-08 14:53:00
7:53 AM,35.1,28.0,76,30.17,10.0,SSE,5.8,-,N/A,,Overcast,160,2013-02-08 15:53:00
8:10 AM,35.6,28.4,75,30.15,10.0,South,5.8,-,N/A,,Overcast,180,2013-02-08 16:10:00
8:53 AM,36.0,28.9,76,30.18,10.0,South,4.6,-,N/A,,Overcast,170,2013-02-08 16:53:00
9:17 AM,35.6,28.4,75,30.16,10.0,South,4.6,-,N/A,,Overcast,170,2013-02-08 17:17:00
9:53 AM,37.9,28.9,70,30.20,10.0,South,6.9,-,N/A,,Overcast,190,2013-02-08 17:53:00
10:53 AM,39.0,28.9,67,30.20,10.0,South,5.8,-,N/A,,Overcast,190,2013-02-08 18:53:00
11:53 AM,41.0,28.9,62,30.18,10.0,SW,6.9,-,N/A,,Overcast,220,2013-02-08 19:53:00
12:53 PM,39.9,28.9,65,30.18,10.0,West,4.6,-,N/A,,Overcast,280,2013-02-08 20:53:00
1:53 PM,41.0,27.0,57,30.17,10.0,West,5.8,-,N/A,,Overcast,270,2013-02-08 21:53:00
2:53 PM,41.0,28.9,62,30.17,10.0,SW,6.9,-,N/A,,Overcast,230,2013-02-08 22:53:00
3:53 PM,42.1,28.0,58,30.17,10.0,SSW,6.9,-,N/A,,Overcast,200,2013-02-08 23:53:00
4:53 PM,39.0,28.0,65,30.17,10.0,SSW,4.6,-,N/A,,Scattered Clouds,200,2013-02-09 00:53:00
5:10 PM,39.2,28.4,65,30.14,10.0,South,4.6,-,N/A,,Mostly Cloudy,170,2013-02-09 01:10:00
5:53 PM,39.0,28.9,67,30.17,10.0,SSE,6.9,-,N/A,,Overcast,150,2013-02-09 01:53:00
6:53 PM,37.9,27.0,65,30.16,10.0,SSE,8.1,-,N/A,,Mostly Cloudy,150,2013-02-09 02:53:00
7:53 PM,37.0,27.0,67,30.17,10.0,SE,3.5,-,N/A,,Scattered Clouds,130,2013-02-09 03:53:00
8:53 PM,32.0,27.0,82,30.18,10.0,Calm,Calm,-,N/A,,Clear,0,2013-02-09 04:53:00
9:53 PM,33.1,26.1,75,30.18,10.0,ESE,3.5,-,N/A,,Clear,120,2013-02-09 05:53:00
10:53 PM,35.1,28.0,76,30.17,10.0,SE,5.8,-,N/A,,Overcast,140,2013-02-09 06:53:00
11:53 PM,37.0,28.0,70,30.17,10.0,SE,4.6,-,N/A,,Overcast,140,2013-02-09 07:53:00